This is the latest recevied weather packets stored in our database for station/object SV2LPQ-2. If no packets are shown the sender has not sent any weather packets the latest 10 day(s).
| Time | Temp. | Humidity | Pressure | Rain* | Wind** | Luminosity | Snow |
|---|---|---|---|---|---|---|---|
| 1777555907 | 13.33° C | 71% | 1042.5 hPa | 0 mm | - | - | - |
| 1777555407 | 13.33° C | 70% | 1042.5 hPa | 0 mm | - | - | - |
| 1777554907 | 13.89° C | 72% | 1042.5 hPa | 0 mm | - | - | - |
| 1777554407 | 13.89° C | 72% | 1042.5 hPa | 0 mm | - | - | - |
| 1777553907 | 14.44° C | 71% | 1042.5 hPa | 0 mm | - | - | - |
| 1777553407 | 14.44° C | 69% | 1042.5 hPa | 0 mm | - | - | - |
| 1777552907 | 15° C | 66% | 1042.5 hPa | 0 mm | - | - | - |
| 1777552406 | 15.56° C | 64% | 1042.5 hPa | 0 mm | - | - | - |
| 1777551907 | 16.11° C | 62% | 1042.5 hPa | 0 mm | - | - | - |
| 1777551406 | 17.22° C | 61% | 1042.5 hPa | 0 mm | - | - | - |
| 1777550906 | 17.78° C | 60% | 1042.5 hPa | 0 mm | - | - | - |
| 1777550406 | 18.89° C | 58% | 1042.5 hPa | 0 mm | - | - | - |
| 1777549906 | 20° C | 55% | 1042.5 hPa | 0 mm | - | - | - |
| 1777549405 | 20° C | 56% | 1042.5 hPa | 0 mm | - | - | - |
| 1777548905 | 20° C | 56% | 1042.5 hPa | 0 mm | - | - | - |
| 1777548405 | 20.56° C | 56% | 1042.5 hPa | 0 mm | - | - | - |
| 1777547905 | 21.11° C | 54% | 1042.5 hPa | 0 mm | - | - | - |
| 1777547405 | 21.67° C | 54% | 1042.5 hPa | 0 mm | - | - | - |
| 1777546905 | 21.67° C | 54% | 1042.5 hPa | 0 mm | - | - | - |
| 1777546404 | 21.67° C | 54% | 1042.5 hPa | 0 mm | - | - | - |
| 1777545904 | 22.22° C | 54% | 1042.5 hPa | 0 mm | - | - | - |
| 1777545404 | 22.22° C | 53% | 1042.5 hPa | 0 mm | - | - | - |
| 1777544904 | 21.11° C | 53% | 1042.5 hPa | 0 mm | - | - | - |
| 1777544404 | 21.11° C | 53% | 1042.5 hPa | 0 mm | - | - | - |
| 1777543904 | 21.67° C | 53% | 1042.5 hPa | 0 mm | - | - | - |
* Rain latest hour (hover to see other rain measurements)
** Current wind speed in m/s (hover to see current wind gust speed)